| time (UTC) | temp F | wind direction | speed MPH | gust MPH | rain 1hr in | rain 24hr in | rain mn in | humidity % | barometer mb |
| 20260507201036 | 55 | 195 | 0.0 | 1.0 | 0.00 | 0.00 | 0.00 | 76 | 1010.1 |
| 20260507200532 | 55 | 195 | 0.0 | 1.0 | 0.00 | 0.00 | 0.00 | 74 | 1010.1 |
| 20260507200029 | 55 | 195 | 1.0 | 1.0 | 0.00 | 0.00 | 0.00 | 74 | 1009.9 |
| 20260507195532 | 56 | 195 | 1.0 | 1.0 | 0.00 | 0.00 | 0.00 | 74 | 1009.7 |
| 20260507195029 | 56 | 195 | 0.0 | 1.0 | 0.00 | 0.00 | 0.00 | 74 | 1009.8 |
| 20260507194531 | 56 | 195 | 0.0 | 1.0 | 0.00 | 0.00 | 0.00 | 74 | 1009.8 |
| 20260507194031 | 56 | 194 | 0.0 | 2.0 | 0.00 | 0.00 | 0.00 | 75 | 1009.9 |
| 20260507193530 | 57 | 194 | 0.0 | 2.0 | 0.00 | 0.00 | 0.00 | 75 | 1010.1 |
| 20260507193033 | 57 | 193 | 0.0 | 1.0 | 0.00 | 0.00 | 0.00 | 76 | 1010.2 |
| 20260507192531 | 57 | 194 | 1.0 | 1.0 | 0.00 | 0.00 | 0.00 | 73 | 1010.5 |
| 20260507192033 | 57 | 194 | 0.0 | 1.0 | 0.00 | 0.00 | 0.00 | 70 | 1010.1 |
| 20260507191528 | 57 | 194 | 0.0 | 1.0 | 0.00 | 0.00 | 0.00 | 69 | 1010.0 |
| 20260507191031 | 57 | 194 | 0.0 | 1.0 | 0.00 | 0.00 | 0.00 | 71 | 1010.1 |
| 20260507190529 | 57 | 198 | 0.0 | 1.0 | 0.00 | 0.00 | 0.00 | 76 | 1010.2 |
| 20260507185530 | 57 | 198 | 0.0 | 1.0 | 0.00 | 0.00 | 0.00 | 74 | 1010.7 |
| 20260507185039 | 57 | 198 | 0.0 | 1.0 | 0.00 | 0.00 | 0.00 | 73 | 1011.0 |
| 20260507184531 | 56 | 198 | 1.0 | 1.0 | 0.00 | 0.00 | 0.00 | 74 | 1011.2 |
| 20260507184032 | 56 | 198 | 0.0 | 1.0 | 0.00 | 0.00 | 0.00 | 76 | 1011.1 |
| 20260507183019 | 56 | 198 | 1.0 | 2.0 | 0.00 | 0.00 | 0.00 | 77 | 1011.2 |
| 20260507182513 | 57 | 197 | 0.0 | 1.0 | 0.00 | 0.00 | 0.00 | 77 | 1011.2 |
| 20260507182013 | 57 | 201 | 0.0 | 2.0 | 0.00 | 0.00 | 0.00 | 79 | 1011.2 |
| 20260507181511 | 57 | 201 | 0.0 | 2.0 | 0.00 | 0.00 | 0.00 | 78 | 1010.9 |
| 20260507181008 | 57 | 198 | 0.0 | 2.0 | 0.00 | 0.00 | 0.00 | 78 | 1010.8 |
| 20260507180510 | 57 | 198 | 1.0 | 2.0 | 0.00 | 0.00 | 0.00 | 78 | 1010.9 |
| 20260507180010 | 57 | 197 | 1.0 | 1.0 | 0.00 | 0.00 | 0.00 | 77 | 1011.0 |
| 20260507175509 | 57 | 196 | 1.0 | 2.0 | 0.00 | 0.00 | 0.00 | 78 | 1011.0 |
| 20260507175014 | 57 | 195 | 1.0 | 2.0 | 0.00 | 0.00 | 0.00 | 76 | 1011.2 |
| 20260507174505 | 57 | 195 | 1.0 | 2.0 | 0.00 | 0.00 | 0.00 | 77 | 1011.2 |
| 20260507174013 | 57 | 200 | 1.0 | 2.0 | 0.00 | 0.00 | 0.00 | 77 | 1011.0 |
| 20260507172010 | 57 | 184 | 1.0 | 4.0 | 0.00 | 0.00 | 0.00 | 77 | 1011.5 |
| 20260507171009 | 57 | 198 | 1.0 | 3.0 | 0.00 | 0.00 | 0.00 | 77 | 1011.5 |
| 20260507170509 | 57 | 196 | 1.0 | 1.0 | 0.00 | 0.00 | 0.00 | 79 | 1011.8 |
| 20260507170006 | 57 | 198 | 1.0 | 2.0 | 0.00 | 0.00 | 0.00 | 79 | 1011.9 |
| 20260507165003 | 57 | 194 | 1.0 | 2.0 | 0.00 | 0.00 | 0.00 | 78 | 1011.9 |
| 20260507164510 | 57 | 196 | 1.0 | 2.0 | 0.00 | 0.00 | 0.00 | 77 | 1012.1 |
| 20260507164003 | 57 | 193 | 1.0 | 5.0 | 0.00 | 0.00 | 0.00 | 78 | 1011.9 |
| 20260507163007 | 57 | 197 | 1.0 | 5.0 | 0.00 | 0.00 | 0.00 | 76 | 1012.0 |
| 20260507162503 | 57 | 210 | 1.0 | 5.0 | 0.00 | 0.00 | 0.00 | 76 | 1012.1 |
| 20260507162006 | 57 | 200 | 0.0 | 4.0 | 0.00 | 0.00 | 0.00 | 78 | 1012.1 |
| 20260507161503 | 57 | 197 | 1.0 | 3.0 | 0.00 | 0.00 | 0.00 | 79 | 1012.4 |
| 20260507160501 | 57 | 198 | 1.0 | 4.0 | 0.00 | 0.00 | 0.00 | 77 | 1012.4 |
| 20260507155504 | 57 | 202 | 1.0 | 4.0 | 0.00 | 0.00 | 0.00 | 80 | 1012.4 |
| 20260507155004 | 57 | 201 | 1.0 | 3.0 | 0.00 | 0.00 | 0.00 | 80 | 1012.6 |
| 20260507154510 | 56 | 192 | 1.0 | 5.0 | 0.00 | 0.00 | 0.00 | 80 | 1012.6 |
| 20260507153505 | 56 | 174 | 1.0 | 3.0 | 0.00 | 0.00 | 0.00 | 79 | 1012.8 |
| 20260507152502 | 56 | 207 | 1.0 | 5.0 | 0.00 | 0.00 | 0.00 | 79 | 1012.8 |
| 20260507152003 | 56 | 197 | 1.0 | 5.0 | 0.00 | 0.00 | 0.00 | 80 | 1012.8 |
| 20260507151004 | 56 | 213 | 1.0 | 5.0 | 0.00 | 0.00 | 0.00 | 80 | 1012.6 |
| 20260507150502 | 56 | 195 | 1.0 | 5.0 | 0.00 | 0.00 | 0.00 | 81 | 1012.6 |
| 20260507150001 | 56 | 193 | 1.0 | 5.0 | 0.00 | 0.00 | 0.00 | 81 | 1012.6 |
| 20260507145505 | 56 | 200 | 2.0 | 5.0 | 0.00 | 0.00 | 0.00 | 81 | 1012.7 |
| 20260507145006 | 56 | 196 | 2.0 | 4.0 | 0.00 | 0.00 | 0.00 | 80 | 1012.9 |
| 20260507144501 | 56 | 194 | 1.0 | 5.0 | 0.00 | 0.00 | 0.00 | 79 | 1012.8 |
| 20260507144003 | 56 | 181 | 1.0 | 5.0 | 0.00 | 0.00 | 0.00 | 80 | 1013.0 |
| 20260507143007 | 56 | 192 | 0.0 | 2.0 | 0.00 | 0.00 | 0.00 | 80 | 1012.8 |
| 20260507142504 | 56 | 194 | 1.0 | 3.0 | 0.00 | 0.00 | 0.00 | 82 | 1012.9 |
| 20260507142003 | 56 | 198 | 1.0 | 3.0 | 0.00 | 0.00 | 0.00 | 81 | 1012.9 |
| 20260507141531 | 56 | 201 | 1.0 | 3.0 | 0.00 | 0.00 | 0.00 | 82 | 1013.0 |
| 20260507140504 | 56 | 213 | 1.0 | 6.0 | 0.00 | 0.00 | 0.00 | 81 | 1012.8 |
| 20260507140008 | 56 | 196 | 1.0 | 6.0 | 0.00 | 0.00 | 0.00 | 80 | 1013.0 |
| 20260507135503 | 56 | 248 | 1.0 | 2.0 | 0.00 | 0.00 | 0.00 | 80 | 1012.9 |
| 20260507135009 | 56 | 209 | 0.0 | 2.0 | 0.00 | 0.00 | 0.00 | 81 | 1012.9 |
| 20260507133957 | 56 | 204 | 1.0 | 3.0 | 0.00 | 0.00 | 0.00 | 80 | 1012.9 |
| 20260507133453 | 56 | 161 | 0.0 | 3.0 | 0.00 | 0.00 | 0.00 | 80 | 1013.0 |
| 20260507132942 | 55 | 216 | 1.0 | 3.0 | 0.00 | 0.00 | 0.00 | 81 | 1013.0 |
| 20260507131504 | 55 | 196 | 1.0 | 3.0 | 0.00 | 0.00 | 0.00 | 80 | 1012.8 |
| 20260507130938 | 55 | 198 | 1.0 | 3.0 | 0.00 | 0.00 | 0.00 | 80 | 1012.5 |
| 20260507130437 | 55 | 201 | 0.0 | 3.0 | 0.00 | 0.00 | 0.00 | 81 | 1012.7 |
| 20260507125939 | 55 | 188 | 0.0 | 3.0 | 0.00 | 0.00 | 0.00 | 81 | 1012.7 |
| 20260507125437 | 55 | 192 | 0.0 | 3.0 | 0.00 | 0.00 | 0.00 | 81 | 1012.7 |
| 20260507124932 | 55 | 213 | 1.0 | 4.0 | 0.00 | 0.00 | 0.00 | 81 | 1012.7 |
| 20260507124434 | 55 | 200 | 1.0 | 4.0 | 0.00 | 0.00 | 0.00 | 81 | 1012.7 |
| 20260507123931 | 55 | 200 | 1.0 | 2.0 | 0.00 | 0.00 | 0.00 | 82 | 1012.7 |
| 20260507122934 | 55 | 194 | 1.0 | 3.0 | 0.00 | 0.00 | 0.00 | 82 | 1012.5 |
| 20260507122432 | 55 | 197 | 1.0 | 3.0 | 0.00 | 0.00 | 0.00 | 82 | 1012.6 |
| 20260507121940 | 55 | 195 | 0.0 | 2.0 | 0.00 | 0.00 | 0.00 | 83 | 1012.6 |
| 20260507120930 | 55 | 193 | 1.0 | 2.0 | 0.00 | 0.00 | 0.00 | 82 | 1012.7 |
| 20260507115931 | 55 | 198 | 1.0 | 3.0 | 0.00 | 0.00 | 0.00 | 82 | 1013.0 |
| 20260507115431 | 55 | 205 | 1.0 | 3.0 | 0.00 | 0.00 | 0.00 | 82 | 1013.0 |
| 20260507114929 | 55 | 199 | 1.0 | 6.0 | 0.00 | 0.00 | 0.00 | 82 | 1012.9 |
| 20260507114438 | 55 | 200 | 1.0 | 6.0 | 0.00 | 0.00 | 0.00 | 82 | 1012.7 |
| 20260507113931 | 55 | 206 | 2.0 | 6.0 | 0.00 | 0.00 | 0.00 | 82 | 1012.8 |
| 20260507113432 | 54 | 205 | 2.0 | 6.0 | 0.00 | 0.00 | 0.00 | 81 | 1012.6 |
| 20260507112935 | 55 | 199 | 2.0 | 5.0 | 0.00 | 0.00 | 0.00 | 82 | 1012.3 |
| 20260507112433 | 55 | 212 | 2.0 | 5.0 | 0.00 | 0.00 | 0.00 | 82 | 1012.4 |
| 20260507111936 | 55 | 203 | 2.0 | 5.0 | 0.00 | 0.00 | 0.00 | 82 | 1012.4 |
| 20260507111437 | 55 | 191 | 1.0 | 5.0 | 0.00 | 0.00 | 0.00 | 82 | 1012.2 |
| 20260507110930 | 55 | 184 | 1.0 | 4.0 | 0.00 | 0.00 | 0.00 | 83 | 1012.1 |
| 20260507110431 | 55 | 185 | 1.0 | 2.0 | 0.00 | 0.00 | 0.00 | 83 | 1012.0 |
| 20260507105935 | 55 | 205 | 0.0 | 4.0 | 0.00 | 0.00 | 0.00 | 84 | 1012.1 |
| 20260507105436 | 55 | 181 | 1.0 | 4.0 | 0.00 | 0.00 | 0.00 | 85 | 1012.1 |
| 20260507104933 | 55 | 198 | 1.0 | 5.0 | 0.00 | 0.00 | 0.00 | 86 | 1012.1 |
| 20260507104431 | 54 | 188 | 1.0 | 5.0 | 0.00 | 0.00 | 0.00 | 86 | 1012.2 |
| 20260507103928 | 54 | 200 | 1.0 | 4.0 | 0.00 | 0.00 | 0.00 | 86 | 1012.1 |
| 20260507102417 | 54 | 200 | 1.0 | 2.0 | 0.00 | 0.00 | 0.00 | 88 | 1012.1 |
| 20260507101922 | 54 | 192 | 1.0 | 4.0 | 0.00 | 0.00 | 0.00 | 88 | 1012.1 |
| 20260507101414 | 54 | 199 | 1.0 | 4.0 | 0.00 | 0.00 | 0.00 | 88 | 1011.9 |
| 20260507100917 | 54 | 196 | 1.0 | 4.0 | 0.00 | 0.00 | 0.00 | 88 | 1012.0 |
| 20260507100412 | 54 | 192 | 1.0 | 4.0 | 0.00 | 0.00 | 0.00 | 88 | 1012.1 |
| 20260507095914 | 54 | 177 | 1.0 | 4.0 | 0.00 | 0.00 | 0.00 | 88 | 1012.2 |
| 20260507095420 | 54 | 188 | 1.0 | 6.0 | 0.00 | 0.00 | 0.00 | 88 | 1012.1 |
| 20260507094412 | 55 | 192 | 2.0 | 7.0 | 0.00 | 0.00 | 0.00 | 88 | 1011.9 |
| 20260507093909 | 55 | 195 | 2.0 | 7.0 | 0.00 | 0.00 | 0.00 | 88 | 1011.9 |
| 20260507093410 | 55 | 202 | 2.0 | 7.0 | 0.00 | 0.00 | 0.00 | 88 | 1011.3 |
| 20260507092908 | 55 | 207 | 2.0 | 7.0 | 0.00 | 0.00 | 0.00 | 88 | 1011.2 |
| 20260507092412 | 55 | 204 | 2.0 | 5.0 | 0.00 | 0.00 | 0.00 | 88 | 1010.7 |
| 20260507091908 | 55 | 205 | 1.0 | 5.0 | 0.00 | 0.00 | 0.00 | 89 | 1011.0 |
| 20260507091409 | 56 | 209 | 1.0 | 6.0 | 0.00 | 0.00 | 0.00 | 91 | 1011.0 |
| 20260507090917 | 56 | 212 | 1.0 | 6.0 | 0.00 | 0.00 | 0.00 | 91 | 1010.9 |
| 20260507090410 | 56 | 198 | 1.0 | 5.0 | 0.00 | 0.00 | 0.00 | 91 | 1010.9 |
| 20260507085402 | 56 | 218 | 2.0 | 5.0 | 0.00 | 0.00 | 0.00 | 90 | 1010.7 |
| 20260507084904 | 56 | 196 | 2.0 | 6.0 | 0.00 | 0.00 | 0.00 | 90 | 1010.9 |
| 20260507084405 | 56 | 207 | 1.0 | 6.0 | 0.00 | 0.00 | 0.00 | 91 | 1011.0 |
| 20260507083904 | 57 | 204 | 1.0 | 5.0 | 0.00 | 0.00 | 0.00 | 91 | 1011.0 |
| 20260507083404 | 57 | 198 | 1.0 | 7.0 | 0.00 | 0.00 | 0.00 | 91 | 1010.7 |
| 20260507082904 | 58 | 200 | 2.0 | 7.0 | 0.00 | 0.00 | 0.00 | 92 | 1010.8 |
| 20260507082412 | 58 | 207 | 2.0 | 7.0 | 0.00 | 0.00 | 0.00 | 92 | 1010.9 |
| 20260507080907 | 59 | 171 | 2.0 | 5.0 | 0.00 | 0.00 | 0.00 | 93 | 1010.3 |
| 20260507080401 | 59 | 220 | 2.0 | 5.0 | 0.00 | 0.00 | 0.00 | 94 | 1010.3 |
| 20260507075903 | 59 | 205 | 1.0 | 4.0 | 0.00 | 0.00 | 0.00 | 94 | 1010.2 |
| 20260507075402 | 59 | 197 | 1.0 | 3.0 | 0.00 | 0.00 | 0.00 | 94 | 1009.9 |
| 20260507074902 | 59 | 191 | 1.0 | 3.0 | 0.00 | 0.00 | 0.00 | 94 | 1009.7 |
| 20260507073901 | 59 | 170 | 1.0 | 3.0 | 0.00 | 0.00 | 0.00 | 93 | 1009.6 |
| 20260507073406 | 59 | 210 | 1.0 | 3.0 | 0.00 | 0.00 | 0.00 | 93 | 1009.7 |
| 20260507072904 | 59 | 210 | 1.0 | 3.0 | 0.00 | 0.00 | 0.00 | 92 | 1009.6 |
| 20260507072402 | 60 | 190 | 1.0 | 3.0 | 0.00 | 0.00 | 0.00 | 92 | 1009.6 |
| 20260507071850 | 60 | 198 | 1.0 | 3.0 | 0.00 | 0.00 | 0.00 | 91 | 1009.5 |
| 20260507070838 | 62 | 212 | 1.0 | 5.0 | 0.00 | 0.00 | 0.00 | 89 | 1009.6 |
| 20260507070341 | 63 | 213 | 1.0 | 5.0 | 0.00 | 0.00 | 0.00 | 89 | 1009.9 |
| 20260507065839 | 65 | 138 | 0.0 | 0.0 | 0.00 | 0.00 | 0.00 | 93 | 1009.8 |
| 20260507065338 | 65 | 138 | 0.0 | 1.0 | 0.00 | 0.00 | 0.00 | 92 | 1009.8 |
| 20260507064840 | 65 | 138 | 0.0 | 1.0 | 0.00 | 0.00 | 0.00 | 92 | 1009.9 |
| 20260507064341 | 65 | 138 | 0.0 | 2.0 | 0.00 | 0.00 | 0.00 | 91 | 1009.7 |
| 20260507063838 | 66 | 141 | 0.0 | 2.0 | 0.00 | 0.00 | 0.00 | 91 | 1009.6 |
| 20260507063336 | 66 | 144 | 0.0 | 1.0 | 0.00 | 0.00 | 0.00 | 90 | 1009.6 |
| 20260507062339 | 66 | 144 | 0.0 | 2.0 | 0.00 | 0.00 | 0.00 | 89 | 1009.5 |
| 20260507061838 | 66 | 144 | 0.0 | 2.0 | 0.00 | 0.00 | 0.00 | 89 | 1009.3 |
| 20260507061340 | 66 | 135 | 0.0 | 1.0 | 0.00 | 0.00 | 0.00 | 89 | 1009.3 |
| 20260507060833 | 66 | 135 | 0.0 | 0.0 | 0.00 | 0.00 | 0.00 | 89 | 1009.3 |
| 20260507055832 | 66 | 135 | 0.0 | 1.0 | 0.00 | 0.00 | 0.00 | 88 | 1009.5 |
| 20260507055334 | 66 | 135 | 0.0 | 0.0 | 0.00 | 0.00 | 0.00 | 88 | 1009.3 |
| 20260507054828 | 66 | 135 | 0.0 | 0.0 | 0.00 | 0.00 | 0.00 | 88 | 1009.4 |
| 20260507053827 | 66 | 135 | 0.0 | 1.0 | 0.00 | 0.00 | 0.00 | 88 | 1009.7 |
| 20260507053325 | 66 | 135 | 0.0 | 0.0 | 0.00 | 0.00 | 0.00 | 88 | 1009.9 |
| 20260507052824 | 66 | 135 | 0.0 | 0.0 | 0.00 | 0.00 | 0.00 | 88 | 1009.9 |
| 20260507052320 | 66 | 135 | 0.0 | 0.0 | 0.00 | 0.00 | 0.00 | 88 | 1009.9 |
| 20260507051827 | 66 | 135 | 0.0 | 0.0 | 0.00 | 0.00 | 0.00 | 88 | 1009.9 |
| 20260507051325 | 66 | 135 | 0.0 | 0.0 | 0.00 | 0.00 | 0.00 | 88 | 1010.2 |
| 20260507050819 | 66 | 135 | 0.0 | 0.0 | 0.00 | 0.00 | 0.00 | 88 | 1010.1 |
| 20260507050323 | 66 | 135 | 0.0 | 0.0 | 0.00 | 0.00 | 0.00 | 88 | 1010.0 |
| 20260507045316 | 66 | 135 | 0.0 | 0.0 | 0.00 | 0.00 | 0.00 | 88 | 1010.1 |
| 20260507042819 | 65 | 135 | 0.0 | 1.0 | 0.00 | 0.00 | 0.00 | 89 | 1010.3 |
| 20260507042315 | 65 | 135 | 0.0 | 1.0 | 0.00 | 0.00 | 0.00 | 89 | 1010.3 |
| 20260507041817 | 65 | 135 | 0.0 | 0.0 | 0.00 | 0.00 | 0.00 | 89 | 1010.4 |
| 20260507041312 | 65 | 135 | 0.0 | 1.0 | 0.00 | 0.00 | 0.00 | 89 | 1010.2 |
| 20260507040817 | 65 | 135 | 0.0 | 1.0 | 0.00 | 0.00 | 0.00 | 89 | 1010.2 |
| 20260507040314 | 65 | 135 | 0.0 | 0.0 | 0.00 | 0.00 | 0.00 | 88 | 1010.0 |
| 20260507035810 | 65 | 135 | 0.0 | 0.0 | 0.00 | 0.00 | 0.00 | 88 | 1010.1 |
| 20260507034311 | 66 | 135 | 0.0 | 0.0 | 0.00 | 0.00 | 0.00 | 87 | 1009.5 |
| 20260507033802 | 66 | 135 | 0.0 | 0.0 | 0.00 | 0.00 | 0.00 | 87 | 1009.7 |
| 20260507032803 | 66 | 135 | 0.0 | 0.0 | 0.00 | 0.00 | 0.00 | 87 | 1010.1 |
| 20260507032306 | 66 | 135 | 0.0 | 0.0 | 0.00 | 0.00 | 0.00 | 86 | 1010.0 |
| 20260507031804 | 66 | 135 | 0.0 | 0.0 | 0.00 | 0.00 | 0.00 | 86 | 1009.9 |
| 20260507031303 | 66 | 135 | 0.0 | 0.0 | 0.00 | 0.00 | 0.00 | 86 | 1010.1 |
| 20260507030803 | 66 | 135 | 0.0 | 0.0 | 0.00 | 0.00 | 0.00 | 86 | 1010.1 |
| 20260507030303 | 67 | 135 | 0.0 | 0.0 | 0.00 | 0.00 | 0.00 | 85 | 1009.9 |
| 20260507025307 | 67 | 135 | 0.0 | 0.0 | 0.00 | 0.00 | 0.00 | 85 | 1010.1 |
| 20260507024814 | 67 | 135 | 0.0 | 0.0 | 0.00 | 0.00 | 0.00 | 85 | 1010.2 |
| 20260507024306 | 67 | 135 | 0.0 | 0.0 | 0.00 | 0.00 | 0.00 | 84 | 1010.4 |
| 20260507023805 | 67 | 135 | 0.0 | 0.0 | 0.00 | 0.00 | 0.00 | 84 | 1010.3 |
| 20260507023305 | 67 | 135 | 0.0 | 1.0 | 0.00 | 0.00 | 0.00 | 84 | 1010.4 |
| 20260507022803 | 67 | 135 | 0.0 | 1.0 | 0.00 | 0.00 | 0.00 | 84 | 1010.3 |
| 20260507022306 | 68 | 135 | 0.0 | 0.0 | 0.00 | 0.00 | 0.00 | 84 | 1010.3 |
| 20260507021802 | 68 | 135 | 0.0 | 0.0 | 0.00 | 0.00 | 0.00 | 83 | 1010.3 |
| 20260507021304 | 68 | 135 | 0.0 | 1.0 | 0.00 | 0.00 | 0.00 | 83 | 1010.4 |
| 20260507020806 | 68 | 135 | 0.0 | 1.0 | 0.00 | 0.00 | 0.00 | 83 | 1010.5 |
| 20260507020302 | 68 | 135 | 0.0 | 1.0 | 0.00 | 0.00 | 0.00 | 83 | 1010.5 |
| 20260507015808 | 68 | 135 | 0.0 | 1.0 | 0.00 | 0.00 | 0.00 | 83 | 1010.7 |
| 20260507015306 | 68 | 132 | 0.0 | 1.0 | 0.00 | 0.00 | 0.00 | 83 | 1010.9 |
| 20260507014804 | 68 | 132 | 0.0 | 0.0 | 0.00 | 0.00 | 0.00 | 83 | 1010.8 |
| 20260507014303 | 68 | 132 | 0.0 | 1.0 | 0.00 | 0.00 | 0.00 | 83 | 1010.6 |
| 20260507013808 | 68 | 132 | 0.0 | 1.0 | 0.00 | 0.00 | 0.00 | 82 | 1010.5 |
| 20260507012307 | 69 | 132 | 0.0 | 1.0 | 0.00 | 0.00 | 0.00 | 82 | 1010.5 |
| 20260507011804 | 69 | 132 | 0.0 | 1.0 | 0.00 | 0.00 | 0.00 | 81 | 1010.5 |
| 20260507011301 | 69 | 132 | 0.0 | 0.0 | 0.00 | 0.00 | 0.00 | 81 | 1010.6 |
| 20260507010801 | 69 | 132 | 0.0 | 0.0 | 0.00 | 0.00 | 0.00 | 81 | 1010.5 |
| 20260507010301 | 69 | 132 | 0.0 | 1.0 | 0.00 | 0.00 | 0.00 | 81 | 1010.6 |
| 20260507005804 | 69 | 132 | 0.0 | 1.0 | 0.00 | 0.00 | 0.00 | 80 | 1010.5 |
| 20260507005305 | 69 | 132 | 0.0 | 0.0 | 0.00 | 0.00 | 0.00 | 80 | 1010.4 |
| 20260507004804 | 69 | 132 | 0.0 | 1.0 | 0.00 | 0.00 | 0.00 | 80 | 1010.3 |
| 20260507003759 | 70 | 132 | 0.0 | 0.0 | 0.00 | 0.00 | 0.00 | 80 | 1010.2 |
| 20260507002241 | 70 | 132 | 0.0 | 1.0 | 0.00 | 0.00 | 0.00 | 79 | 1010.0 |
| 20260507001740 | 70 | 132 | 0.0 | 1.0 | 0.00 | 0.00 | 0.00 | 79 | 1010.0 |
| 20260507001240 | 70 | 132 | 0.0 | 1.0 | 0.00 | 0.00 | 0.00 | 79 | 1010.0 |
| 20260507000738 | 70 | 132 | 0.0 | 1.0 | 0.00 | 0.00 | 0.00 | 78 | 1010.0 |
| 20260507000239 | 71 | 132 | 0.0 | 1.0 | 0.00 | 0.00 | 0.00 | 78 | 1009.8 |
| 20260506235739 | 71 | 132 | 0.0 | 1.0 | 0.00 | 0.00 | 0.00 | 78 | 1009.9 |
| 20260506235233 | 71 | 132 | 0.0 | 1.0 | 0.00 | 0.00 | 0.00 | 78 | 1009.9 |
| 20260506234734 | 71 | 132 | 0.0 | 1.0 | 0.00 | 0.00 | 0.00 | 78 | 1009.8 |
| 20260506234234 | 71 | 132 | 0.0 | 1.0 | 0.00 | 0.00 | 0.00 | 77 | 1009.8 |
| 20260506233739 | 71 | 132 | 0.0 | 1.0 | 0.00 | 0.00 | 0.00 | 77 | 1009.8 |
| 20260506233236 | 71 | 132 | 0.0 | 1.0 | 0.00 | 0.00 | 0.00 | 77 | 1009.7 |
| 20260506232737 | 71 | 132 | 0.0 | 2.0 | 0.00 | 0.00 | 0.00 | 77 | 1009.6 |
| 20260506232237 | 71 | 132 | 0.0 | 2.0 | 0.00 | 0.00 | 0.00 | 76 | 1009.7 |
| 20260506231737 | 71 | 125 | 0.0 | 2.0 | 0.00 | 0.00 | 0.00 | 76 | 1009.8 |
| 20260506231243 | 72 | 125 | 0.0 | 3.0 | 0.00 | 0.00 | 0.00 | 76 | 1009.7 |
| 20260506230736 | 72 | 126 | 0.0 | 3.0 | 0.00 | 0.00 | 0.00 | 77 | 1009.8 |
| 20260506224734 | 72 | 113 | 0.0 | 2.0 | 0.00 | 0.00 | 0.00 | 76 | 1009.8 |
| 20260506224231 | 72 | 113 | 0.0 | 2.0 | 0.00 | 0.00 | 0.00 | 76 | 1009.7 |
| 20260506223233 | 72 | 107 | 0.0 | 3.0 | 0.00 | 0.00 | 0.00 | 76 | 1009.7 |
| 20260506222743 | 72 | 112 | 0.0 | 2.0 | 0.00 | 0.00 | 0.00 | 76 | 1009.7 |
| 20260506222232 | 72 | 104 | 1.0 | 3.0 | 0.00 | 0.00 | 0.00 | 76 | 1009.8 |
| 20260506221232 | 72 | 133 | 0.0 | 4.0 | 0.00 | 0.00 | 0.00 | 76 | 1009.8 |
| 20260506220731 | 72 | 67 | 0.0 | 3.0 | 0.00 | 0.00 | 0.00 | 77 | 1009.7 |
| 20260506220300 | 72 | 51 | 1.0 | 6.0 | 0.00 | 0.00 | 0.00 | 76 | 1009.7 |
| 20260506214731 | 72 | 349 | 1.0 | 5.0 | 0.00 | 0.00 | 0.00 | 76 | 1009.5 |
| 20260506214230 | 72 | 169 | 0.0 | 5.0 | 0.00 | 0.00 | 0.00 | 77 | 1009.6 |
| 20260506213732 | 72 | 175 | 1.0 | 4.0 | 0.00 | 0.00 | 0.00 | 77 | 1009.6 |
| 20260506213233 | 72 | 148 | 1.0 | 5.0 | 0.00 | 0.00 | 0.00 | 77 | 1009.6 |
| 20260506212730 | 71 | 120 | 1.0 | 5.0 | 0.00 | 0.00 | 0.00 | 77 | 1009.5 |
| 20260506212237 | 71 | 9 | 0.0 | 4.0 | 0.00 | 0.00 | 0.00 | 77 | 1009.4 |
| 20260506211731 | 71 | 111 | 0.0 | 4.0 | 0.00 | 0.00 | 0.00 | 77 | 1009.6 |
| 20260506211230 | 71 | 146 | 1.0 | 3.0 | 0.00 | 0.00 | 0.00 | 77 | 1009.4 |
| 20260506210732 | 71 | 119 | 1.0 | 3.0 | 0.00 | 0.00 | 0.00 | 77 | 1009.2 |
| 20260506205231 | 71 | 76 | 1.0 | 3.0 | 0.00 | 0.00 | 0.00 | 76 | 1009.4 |
| 20260506204731 | 71 | 126 | 1.0 | 5.0 | 0.00 | 0.00 | 0.00 | 76 | 1009.1 |
| 20260506204233 | 71 | 154 | 0.0 | 5.0 | 0.00 | 0.00 | 0.00 | 76 | 1009.4 |
| 20260506203729 | 71 | 119 | 1.0 | 4.0 | 0.00 | 0.00 | 0.00 | 76 | 1009.4 |
| 20260506203231 | 71 | 150 | 1.0 | 3.0 | 0.00 | 0.00 | 0.00 | 76 | 1009.3 |
| 20260506202733 | 72 | 147 | 1.0 | 3.0 | 0.00 | 0.00 | 0.00 | 75 | 1009.3 |
| 20260506202230 | 72 | 185 | 1.0 | 2.0 | 0.00 | 0.00 | 0.00 | 76 | 1009.5 |
| 20260506201731 | 72 | 126 | 1.0 | 6.0 | 0.00 | 0.00 | 0.00 | 76 | 1009.7 |